Location: *
(48.7358°N, 0.3111°E)
Time: 20:18:29
(UTC+00:00)

Cosmos 2237 Rocket - Pass Details

Date: 22 October 2019
Orbit: 833 x 851 km, 71.0° (Epoch: 11 November)

Event Time Altitude Azimuth Distance (km) Brightness Sun altitude
Exits shadow 04:15:39 46° 231° (SW) 1,125 2.4 -22.6°
Maximum altitude 04:17:19 71° 300° (WNW) 898 2.1 -22.3°
Drops below altitude 10° 04:23:02 10° 25° (NNE) 2,489 5.0 -21.4°
Sets 04:25:31 0° 28° (NNE) 3,429 5.9 -21.0°
